Time,TemperatureF,DewpointF,PressureIn,WindDirection,WindDirectionDegrees,WindSpeedMPH,WindSpeedGustMPH,Humidity,HourlyPrecipIn,Conditions,Clouds,dailyrainin,SoftwareType,DateUTC
2013-08-30 00:10:00,60.4,59.0,29.97,NNW,333,0.0,4.0,94,0.00,,,0.00,weatherlink.com 1.10,2013-08-30 04:10:00,
2013-08-30 00:25:00,60.6,59.0,29.98,NNW,333,0.0,3.0,93,0.00,,,0.00,weatherlink.com 1.10,2013-08-30 04:25:00,
2013-08-30 00:40:00,60.3,58.0,29.98,NNW,333,0.0,2.0,93,0.00,,,0.00,weatherlink.com 1.10,2013-08-30 04:40:00,
2013-08-30 00:55:00,59.8,58.0,29.97,NNW,333,0.0,0.0,94,0.00,,,0.00,weatherlink.com 1.10,2013-08-30 04:55:00,
2013-08-30 01:10:00,59.4,58.0,29.98,NNW,333,0.0,0.0,94,0.00,,,0.00,weatherlink.com 1.10,2013-08-30 05:10:00,
2013-08-30 01:25:00,59.1,57.0,29.98,NNW,333,0.0,2.0,94,0.00,,,0.00,weatherlink.com 1.10,2013-08-30 05:25:00,
2013-08-30 01:40:00,58.6,57.0,29.96,NNW,333,0.0,1.0,94,0.00,,,0.00,weatherlink.com 1.10,2013-08-30 05:40:00,
2013-08-30 01:55:00,58.3,57.0,29.97,NNW,333,0.0,1.0,95,0.00,,,0.00,weatherlink.com 1.10,2013-08-30 05:55:00,
2013-08-30 02:10:00,58.1,57.0,29.96,NNW,333,0.0,0.0,95,0.00,,,0.00,weatherlink.com 1.10,2013-08-30 06:10:00,
2013-08-30 02:25:00,57.8,56.0,29.96,NNW,333,0.0,0.0,95,0.00,,,0.00,weatherlink.com 1.10,2013-08-30 06:25:00,
2013-08-30 02:40:00,57.6,56.0,29.96,NNW,333,0.0,0.0,95,0.00,,,0.00,weatherlink.com 1.10,2013-08-30 06:40:00,
2013-08-30 02:55:00,57.2,56.0,29.96,NNW,333,0.0,0.0,95,0.00,,,0.00,weatherlink.com 1.10,2013-08-30 06:55:00,
2013-08-30 03:10:00,57.0,56.0,29.95,NNW,333,0.0,1.0,95,0.00,,,0.00,weatherlink.com 1.10,2013-08-30 07:10:00,
2013-08-30 03:25:00,57.5,56.0,29.95,NNW,333,0.0,0.0,96,0.00,,,0.00,weatherlink.com 1.10,2013-08-30 07:25:00,
2013-08-30 03:40:00,57.5,56.0,29.95,NNW,333,0.0,0.0,96,0.00,,,0.00,weatherlink.com 1.10,2013-08-30 07:40:00,
2013-08-30 03:55:00,57.1,56.0,29.95,NNW,333,0.0,0.0,96,0.00,,,0.00,weatherlink.com 1.10,2013-08-30 07:55:00,
2013-08-30 04:10:00,57.1,56.0,29.95,NNW,333,0.0,0.0,96,0.00,,,0.00,weatherlink.com 1.10,2013-08-30 08:10:00,
2013-08-30 04:25:00,57.3,56.0,29.95,NNW,333,0.0,0.0,96,0.00,,,0.00,weatherlink.com 1.10,2013-08-30 08:25:00,
2013-08-30 04:40:00,57.6,57.0,29.94,NNW,333,0.0,0.0,96,0.00,,,0.00,weatherlink.com 1.10,2013-08-30 08:40:00,
2013-08-30 04:55:00,57.9,57.0,29.95,NNW,333,0.0,1.0,96,0.00,,,0.00,weatherlink.com 1.10,2013-08-30 08:55:00,
2013-08-30 05:10:00,58.3,57.0,29.94,NNW,333,0.0,1.0,96,0.00,,,0.00,weatherlink.com 1.10,2013-08-30 09:10:00,
2013-08-30 05:25:00,58.6,58.0,29.95,NNW,333,0.0,0.0,96,0.00,,,0.00,weatherlink.com 1.10,2013-08-30 09:25:00,
2013-08-30 05:40:00,58.7,58.0,29.95,NNW,333,0.0,2.0,96,0.00,,,0.00,weatherlink.com 1.10,2013-08-30 09:40:00,
2013-08-30 05:56:00,58.8,58.0,29.95,NNW,333,0.0,1.0,96,0.00,,,0.00,weatherlink.com 1.10,2013-08-30 09:56:00,
2013-08-30 06:11:00,58.9,58.0,29.95,NNW,333,0.0,1.0,96,0.00,,,0.00,weatherlink.com 1.10,2013-08-30 10:11:00,
2013-08-30 06:26:00,58.7,58.0,29.96,NNW,333,0.0,0.0,96,0.00,,,0.00,weatherlink.com 1.10,2013-08-30 10:26:00,
2013-08-30 06:41:00,58.7,58.0,29.96,NNW,333,0.0,0.0,96,0.00,,,0.00,weatherlink.com 1.10,2013-08-30 10:41:00,
2013-08-30 06:56:00,58.9,58.0,29.97,NNW,333,0.0,0.0,96,0.00,,,0.00,weatherlink.com 1.10,2013-08-30 10:56:00,
2013-08-30 07:11:00,59.1,58.0,29.97,NNW,333,0.0,0.0,96,0.00,,,0.00,weatherlink.com 1.10,2013-08-30 11:11:00,
2013-08-30 07:26:00,59.5,58.0,29.97,NNW,333,0.0,0.0,96,0.00,,,0.00,weatherlink.com 1.10,2013-08-30 11:26:00,
2013-08-30 07:41:00,59.8,59.0,29.96,NNW,333,0.0,0.0,96,0.00,,,0.00,weatherlink.com 1.10,2013-08-30 11:41:00,
2013-08-30 07:56:00,60.4,59.0,29.96,NNW,333,0.0,0.0,95,0.00,,,0.00,weatherlink.com 1.10,2013-08-30 11:56:00,
2013-08-30 08:11:00,61.3,60.0,29.95,WNW,302,0.0,4.0,94,0.00,,,0.00,weatherlink.com 1.10,2013-08-30 12:11:00,
2013-08-30 08:26:00,62.1,60.0,29.95,SSW,210,3.0,5.0,92,0.00,,,0.00,weatherlink.com 1.10,2013-08-30 12:26:00,
2013-08-30 08:41:00,62.6,60.0,29.95,SSW,211,0.0,4.0,92,0.00,,,0.00,weatherlink.com 1.10,2013-08-30 12:41:00,
2013-08-30 08:56:00,63.1,61.0,29.95,SSW,211,1.0,2.0,91,0.00,,,0.00,weatherlink.com 1.10,2013-08-30 12:56:00,
2013-08-30 09:11:00,63.5,61.0,29.95,SW,226,1.0,3.0,91,0.00,,,0.00,weatherlink.com 1.10,2013-08-30 13:11:00,
2013-08-30 09:26:00,63.8,61.0,29.95,WSW,240,0.0,5.0,90,0.00,,,0.00,weatherlink.com 1.10,2013-08-30 13:26:00,
2013-08-30 09:41:00,64.2,61.0,29.95,WSW,240,0.0,4.0,90,0.00,,,0.00,weatherlink.com 1.10,2013-08-30 13:41:00,
2013-08-30 09:56:00,64.7,62.0,29.94,SW,222,0.0,5.0,90,0.00,,,0.00,weatherlink.com 1.10,2013-08-30 13:56:00,
2013-08-30 10:11:00,65.2,62.0,29.94,SW,225,2.0,7.0,89,0.00,,,0.00,weatherlink.com 1.10,2013-08-30 14:11:00,
2013-08-30 10:26:00,66.3,63.0,29.93,WSW,248,0.0,5.0,90,0.00,,,0.00,weatherlink.com 1.10,2013-08-30 14:26:00,
2013-08-30 10:41:00,67.3,64.0,29.94,SSW,192,2.0,3.0,89,0.00,,,0.00,weatherlink.com 1.10,2013-08-30 14:41:00,
2013-08-30 10:56:00,67.7,64.0,29.93,WSW,238,3.0,6.0,88,0.00,,,0.00,weatherlink.com 1.10,2013-08-30 14:56:00,
2013-08-30 11:11:00,67.8,64.0,29.93,SW,227,3.0,7.0,87,0.00,,,0.00,weatherlink.com 1.10,2013-08-30 15:11:00,
2013-08-30 11:26:00,67.8,64.0,29.93,WSW,246,3.0,6.0,88,0.00,,,0.00,weatherlink.com 1.10,2013-08-30 15:26:00,
2013-08-30 11:41:00,68.1,65.0,29.93,SSW,211,3.0,6.0,88,0.00,,,0.00,weatherlink.com 1.10,2013-08-30 15:41:00,
2013-08-30 11:56:00,68.4,65.0,29.92,SW,232,1.0,7.0,89,0.00,,,0.00,weatherlink.com 1.10,2013-08-30 15:56:00,
2013-08-30 12:11:00,68.9,65.0,29.91,WSW,240,2.0,6.0,88,0.00,,,0.00,weatherlink.com 1.10,2013-08-30 16:11:00,
2013-08-30 12:26:00,69.2,66.0,29.91,WSW,256,0.0,5.0,88,0.00,,,0.00,weatherlink.com 1.10,2013-08-30 16:26:00,
2013-08-30 12:41:00,69.3,66.0,29.90,SW,236,1.0,5.0,89,0.00,,,0.00,weatherlink.com 1.10,2013-08-30 16:41:00,
2013-08-30 12:56:00,70.5,67.0,29.90,SSW,201,1.0,8.0,88,0.00,,,0.00,weatherlink.com 1.10,2013-08-30 16:56:00,
2013-08-30 13:11:00,71.6,68.0,29.89,SW,231,1.0,6.0,87,0.00,,,0.00,weatherlink.com 1.10,2013-08-30 17:11:00,
2013-08-30 13:26:00,71.2,68.0,29.89,West,265,0.0,5.0,88,0.00,,,0.00,weatherlink.com 1.10,2013-08-30 17:26:00,
2013-08-30 13:41:00,71.1,67.0,29.88,WSW,240,0.0,4.0,88,0.00,,,0.00,weatherlink.com 1.10,2013-08-30 17:41:00,
2013-08-30 13:56:00,71.8,68.0,29.87,WSW,250,3.0,5.0,88,0.00,,,0.00,weatherlink.com 1.10,2013-08-30 17:56:00,
2013-08-30 14:11:00,72.6,69.0,29.87,SSW,197,4.0,7.0,87,0.00,,,0.00,weatherlink.com 1.10,2013-08-30 18:11:00,
2013-08-30 14:27:00,73.0,69.0,29.86,WNW,298,1.0,7.0,86,0.00,,,0.00,weatherlink.com 1.10,2013-08-30 18:27:00,
2013-08-30 14:42:00,73.3,69.0,29.86,SSW,209,4.0,11.0,86,0.00,,,0.00,weatherlink.com 1.10,2013-08-30 18:42:00,
2013-08-30 14:57:00,74.3,69.0,29.86,WNW,285,2.0,8.0,84,0.00,,,0.00,weatherlink.com 1.10,2013-08-30 18:57:00,
2013-08-30 15:12:00,75.1,70.0,29.85,West,261,0.0,7.0,83,0.00,,,0.00,weatherlink.com 1.10,2013-08-30 19:12:00,
2013-08-30 15:27:00,76.0,70.0,29.85,SW,225,1.0,6.0,82,0.00,,,0.00,weatherlink.com 1.10,2013-08-30 19:27:00,
2013-08-30 15:42:00,76.1,70.0,29.84,SSW,199,1.0,7.0,82,0.00,,,0.00,weatherlink.com 1.10,2013-08-30 19:42:00,
2013-08-30 15:57:00,76.2,70.0,29.83,SW,236,5.0,6.0,82,0.00,,,0.00,weatherlink.com 1.10,2013-08-30 19:57:00,
2013-08-30 16:12:00,77.1,71.0,29.83,South,190,0.0,4.0,81,0.00,,,0.00,weatherlink.com 1.10,2013-08-30 20:12:00,
2013-08-30 16:27:00,77.1,71.0,29.84,SW,214,0.0,7.0,80,0.00,,,0.00,weatherlink.com 1.10,2013-08-30 20:27:00,
2013-08-30 16:42:00,77.6,71.0,29.83,SSW,200,1.0,5.0,79,0.00,,,0.00,weatherlink.com 1.10,2013-08-30 20:42:00,
2013-08-30 16:57:00,77.2,70.0,29.83,SSW,205,3.0,6.0,79,0.00,,,0.00,weatherlink.com 1.10,2013-08-30 20:57:00,
2013-08-30 17:12:00,77.1,70.0,29.83,SW,215,2.0,9.0,78,0.00,,,0.00,weatherlink.com 1.10,2013-08-30 21:12:00,
2013-08-30 17:27:00,76.7,71.0,29.83,SSW,212,0.0,4.0,81,0.00,,,0.00,weatherlink.com 1.10,2013-08-30 21:27:00,
2013-08-30 17:42:00,75.7,70.0,29.83,South,190,0.0,6.0,82,0.00,,,0.00,weatherlink.com 1.10,2013-08-30 21:42:00,
2013-08-30 17:57:00,75.1,70.0,29.83,WSW,242,0.0,4.0,83,0.00,,,0.00,weatherlink.com 1.10,2013-08-30 21:57:00,
2013-08-30 18:12:00,74.0,69.0,29.83,SW,226,0.0,4.0,85,0.00,,,0.00,weatherlink.com 1.10,2013-08-30 22:12:00,
2013-08-30 18:27:00,72.8,69.0,29.83,SW,222,0.0,4.0,87,0.00,,,0.00,weatherlink.com 1.10,2013-08-30 22:27:00,
2013-08-30 18:42:00,72.0,69.0,29.83,SW,222,0.0,4.0,89,0.00,,,0.00,weatherlink.com 1.10,2013-08-30 22:42:00,
2013-08-30 18:57:00,71.2,68.0,29.82,South,181,0.0,6.0,90,0.00,,,0.00,weatherlink.com 1.10,2013-08-30 22:57:00,
2013-08-30 19:12:00,70.6,68.0,29.82,SW,215,0.0,4.0,91,0.00,,,0.00,weatherlink.com 1.10,2013-08-30 23:12:00,
2013-08-30 19:27:00,70.0,68.0,29.83,SW,215,0.0,2.0,92,0.00,,,0.00,weatherlink.com 1.10,2013-08-30 23:27:00,
2013-08-30 19:42:00,69.4,67.0,29.82,SW,215,0.0,1.0,93,0.00,,,0.00,weatherlink.com 1.10,2013-08-30 23:42:00,
2013-08-30 19:57:00,68.8,67.0,29.83,SW,215,0.0,1.0,93,0.00,,,0.00,weatherlink.com 1.10,2013-08-30 23:57:00,
2013-08-30 20:12:00,68.3,67.0,29.83,SW,215,0.0,0.0,94,0.00,,,0.00,weatherlink.com 1.10,2013-08-31 00:12:00,
2013-08-30 20:27:00,67.9,66.0,29.83,SW,215,0.0,0.0,94,0.00,,,0.00,weatherlink.com 1.10,2013-08-31 00:27:00,
2013-08-30 20:42:00,67.7,66.0,29.83,SW,215,0.0,0.0,94,0.00,,,0.00,weatherlink.com 1.10,2013-08-31 00:42:00,
2013-08-30 20:57:00,67.4,66.0,29.82,SW,215,0.0,0.0,95,0.00,,,0.00,weatherlink.com 1.10,2013-08-31 00:57:00,
2013-08-30 21:12:00,67.3,66.0,29.83,SW,215,0.0,0.0,95,0.00,,,0.00,weatherlink.com 1.10,2013-08-31 01:12:00,
2013-08-30 21:27:00,67.2,66.0,29.83,SW,215,0.0,0.0,95,0.00,,,0.00,weatherlink.com 1.10,2013-08-31 01:27:00,
2013-08-30 21:42:00,67.3,66.0,29.82,SW,215,0.0,4.0,95,0.00,,,0.00,weatherlink.com 1.10,2013-08-31 01:42:00,
2013-08-30 21:57:00,67.4,66.0,29.82,SW,215,0.0,2.0,95,0.00,,,0.00,weatherlink.com 1.10,2013-08-31 01:57:00,
2013-08-30 22:12:00,67.5,66.0,29.82,SW,215,0.0,2.0,95,0.00,,,0.00,weatherlink.com 1.10,2013-08-31 02:12:00,
2013-08-30 22:27:00,67.5,66.0,29.82,SW,215,2.0,3.0,95,0.00,,,0.00,weatherlink.com 1.10,2013-08-31 02:27:00,
2013-08-30 22:42:00,67.5,66.0,29.83,SW,215,0.0,2.0,95,0.00,,,0.00,weatherlink.com 1.10,2013-08-31 02:42:00,
2013-08-30 22:57:00,67.5,66.0,29.83,SW,215,0.0,3.0,95,0.00,,,0.00,weatherlink.com 1.10,2013-08-31 02:57:00,
2013-08-30 23:12:00,67.5,66.0,29.82,SW,215,0.0,1.0,95,0.00,,,0.00,weatherlink.com 1.10,2013-08-31 03:12:00,
2013-08-30 23:27:00,67.5,66.0,29.82,SW,215,0.0,4.0,96,0.00,,,0.00,weatherlink.com 1.10,2013-08-31 03:27:00,
2013-08-30 23:42:00,67.4,66.0,29.82,SW,215,1.0,2.0,96,0.00,,,0.00,weatherlink.com 1.10,2013-08-31 03:42:00,
2013-08-30 23:57:00,67.4,66.0,29.82,SW,215,0.0,2.0,96,0.00,,,0.00,weatherlink.com 1.10,2013-08-31 03:57:00,